Flag for Austria Weather past 2 weeks in Melk, Lower Austria, Austria

Now
55 °F

Cool.


Feels Like: 55 °F
Forecast: 49 / 61 °F
Wind: 1 mph from Northwest

Location: Amstetten

Current Time: May 25, 2015 at 9:40:51 AM

Latest Report: May 25, 2015 at 9:00 AM


Visibility: N/A

Pressure: 30.01 "Hg

Humidity: 86%

Dew point: 51 °F

Location of MelkLocation

Historic Weather in Melk — Graph

°F

Melk temperature yesterday

Maximum temperature yesterday: 54 °F (at 5:00 PM)
Minimum temperature yesterday: 49 °F (at 6:00 AM)
Average temperature yesterday: 52 °F

Past Weeks' High & Low Weather Summary

 TemperatureHumidityPressure
High78 °F (May 12, 6:00 PM)100% (May 20, 9:00 AM)30.41 "Hg (May 20, 9:00 AM)
Low43 °F (May 11, 6:00 AM)26% (May 11, 3:00 PM)29.71 "Hg (May 18, 8:00 PM)
Average57 °F78%30.07 "Hg
* Reported May 10 8:00 AM — May 25 8:00 AM, Melk, Weather by CustomWeather, © 2015

Note: Actual official high and low records may vary slightly from our data, if they occured in-between our weather recording intervals... More about our weather records

Advertising

Melk weather history for previous 24 hours

 ConditionsComfort  
Time TempWeatherWind HumidityBarometerVisibility
8:00 AM
Mon, May 25
54 °FCool.1 mph91%30.02 "HgN/A
7:00 AM53 °FCool.1 mph94%30.02 "HgN/A
6:00 AM51 °FCool.1 mph97%30.03 "HgN/A
5:00 AM51 °FCool.1 mph97%30.03 "HgN/A
4:00 AM51 °FCool.1 mph97%30.03 "HgN/A
3:00 AM52 °FCool.No wind98%30.05 "HgN/A
2:00 AM52 °FCool.No wind97%30.06 "HgN/A
1:00 AM52 °FCool.1 mph97%30.07 "HgN/A
12:00 AM53 °FCool.1 mph96%30.07 "HgN/A
10:00 PM
Sun, May 24
53 °FCool.1 mph96%30.09 "HgN/A
9:00 PM53 °FCool.1 mph94%30.08 "HgN/A
8:00 PM54 °FCool.1 mph92%30.09 "HgN/A
7:00 PM54 °FCool.1 mph92%30.09 "HgN/A
6:00 PM54 °FCool.1 mph89%30.09 "HgN/A
5:00 PM54 °FCool.1 mph88%30.09 "HgN/A
4:00 PM54 °FCool.1 mph90%30.09 "HgN/A
3:00 PM54 °FCool.3 mph89%30.10 "HgN/A
2:00 PM53 °FCool.3 mph94%30.10 "HgN/A
1:00 PM52 °FSprinkles. Cloudy.3 mph95%30.11 "HgN/A
12:00 PM51 °FSprinkles. Cloudy.3 mph96%30.11 "HgN/A
11:00 AM51 °FCool.3 mph95%30.11 "HgN/A
10:00 AM51 °FCool.3 mph94%30.10 "HgN/A
9:00 AM50 °FCool.3 mph94%30.09 "HgN/A
Weather by CustomWeather, © 2015

See weather overviewHow to use our weather pages